Location: Bismarck
(46.7731°N, 100.8200°W)
Time: 06:42:57
(UTC-05:00)

Landsat 7 - Visible Passes

Search period start: 26 May 2015 00:00
Search period end: 05 June 2015 00:00
Orbit: 701 x 703 km, 98.2° (Epoch: 26 May)

Date Brightness Start Highest point End Pass type
(mag) Time Alt. Az. Time Alt. Az. Time Alt. Az.
26 May 6.1 00:42:23 10° WSW 00:45:06 15° W 00:47:47 10° NW visible
26 May 5.3 22:08:24 10° ESE 22:12:04 23° ENE 22:15:50 10° NNE visible
26 May 4.5 23:46:43 22° SSW 23:49:34 48° W 23:54:12 10° NNW visible
27 May 4.1 22:51:03 17° SE 22:54:34 53° ENE 22:59:14 10° N visible
28 May 5.8 00:29:56 13° SW 00:32:43 20° W 00:36:06 10° NW visible
28 May 5.6 21:56:47 10° ESE 21:59:58 19° ENE 22:03:17 10° NNE visible
28 May 4.1 23:34:15 22° S 23:37:19 63° W 23:42:03 10° NNW visible
29 May 4.5 22:38:35 13° SE 22:42:24 41° ENE 22:46:53 10° N visible
30 May 5.5 00:17:28 15° SW 00:20:20 25° W 00:24:15 10° NW visible
30 May 3.8 23:21:48 20° S 23:25:04 81° WSW 23:29:52 10° NNW visible
31 May 4.8 22:26:08 10° SE 22:30:14 32° ENE 22:34:30 10° N visible
01 Jun 5.1 00:05:01 17° SSW 00:08:00 32° W 00:12:16 10° NNW visible
01 Jun 3.8 23:09:21 18° SSE 23:12:50 78° ENE 23:17:38 10° N visible
02 Jun 6.2 00:48:53 10° WSW 00:51:17 13° W 00:53:27 10° WNW visible
02 Jun 5.2 22:14:15 10° ESE 22:18:06 26° ENE 22:22:03 10° N visible
02 Jun 4.7 23:52:34 18° SSW 23:55:42 42° W 00:00:13 10° NNW visible
03 Jun 4.0 22:56:54 16° SSE 23:00:38 60° ENE 23:05:21 10° N visible
04 Jun 6.0 00:35:47 10° SW 00:38:52 17° W 00:41:56 10° NW visible
04 Jun 4.3 23:40:07 19° S 23:43:24 55° W 23:48:06 10° NNW visible
